Wahpeton, MN

5:37 PM CST on December 15, 2019 (GMT -0600)
Stern

Weather History for KBWP - October, 2019

Change the Weather History Date:

Tuesday, October 15, 2019

  Actual Average (KFFM) Record (KFFM)
Temperature  
Mean Temperature 38 °F -  
Max Temperature 42 °F 54 °F 83 °F (1953)
Min Temperature 33 °F 33 °F 20 °F (1991)
Degree Days  
Heating Degree Days 28    
Moisture  
Dew Point 34 °F    
Average Humidity 86    
Maximum Humidity 93    
Minimum Humidity 75    
Precipitation  
Precipitation 0.02 in - - ()
Sea Level Pressure  
Sea Level Pressure 29.99 in    
Wind  
Wind Speed 6 mph ()    
Max Wind Speed 20 mph    
Max Gust Speed 25 mph    
Visibility 9.9 miles    
Events      
Averages and records for this station are not official NWS values.
T = Trace of Precipitation, MM = Missing Value Source: Averaged Metar Reports

Daily Weather History Graph

Daily Weather History Graph

Search for Another Location

Airport or City:

Astronomy

Oct. 15, 2019 Rise Set
Actual Time 7:43 AM CDT 6:40 PM CDT
Civil Twilight 7:13 AM CDT 7:10 PM CDT
Nautical Twilight 6:38 AM CDT 7:45 PM CDT
Astronomical Twilight 6:03 AM CDT 8:20 PM CDT
Moon 7:56 PM CDT 9:17 AM CDT
Length of Visible Light 11h 57m
Length of Day
10h 57m
Full, 97% of the Moon is Illuminated
Oct 15
Full
Oct 21
Last Quarter
Oct 27
New
Nov 4
First Quarter
Nov 12
Full

Hourly Weather History & Observations

Time (CDT) Temp. Windchill Dew Point Humidity Pressure Visibility Wind Dir Wind Speed Gust Speed Precip Events Conditions
12:15 AM 37.4 °F 32.8 °F 32.0 °F 81% 29.87 in 10.0 mi East 5.8 mph - N/A   Unknown
12:35 AM 37.4 °F 34.9 °F 32.0 °F 81% 29.88 in 10.0 mi ENE 3.5 mph - N/A   Unknown
12:55 AM 37.4 °F 33.8 °F 32.0 °F 81% 29.86 in 10.0 mi ENE 4.6 mph - N/A   Unknown
1:15 AM 37.4 °F - 32.0 °F 81% 29.87 in 10.0 mi Calm Calm - N/A   Unknown
1:35 AM 37.4 °F - 32.0 °F 81% 29.86 in 10.0 mi Calm Calm - N/A   Unknown
1:55 AM 35.6 °F - 32.0 °F 87% 29.86 in 10.0 mi Calm Calm - N/A   Unknown
2:15 AM 33.8 °F 30.8 °F 32.0 °F 93% 29.86 in 10.0 mi NNW 3.5 mph - N/A   Unknown
2:55 AM 35.6 °F 31.7 °F 32.0 °F 87% 29.85 in 10.0 mi East 4.6 mph - N/A   Unknown
3:15 AM 35.6 °F 31.7 °F 32.0 °F 87% 29.85 in 10.0 mi NNE 4.6 mph - N/A   Unknown
3:35 AM 35.6 °F - 32.0 °F 87% 29.86 in 10.0 mi Calm Calm - N/A   Unknown
3:55 AM 35.6 °F 30.7 °F 32.0 °F 87% 29.87 in 10.0 mi WNW 5.8 mph - N/A   Unknown
4:15 AM 33.8 °F 30.8 °F 32.0 °F 93% 29.86 in 10.0 mi WNW 3.5 mph - N/A   Unknown
4:35 AM 33.8 °F - 32.0 °F 93% 29.86 in 10.0 mi Calm Calm - N/A   Unknown
4:55 AM 33.8 °F 27.7 °F 32.0 °F 93% 29.87 in 10.0 mi West 6.9 mph - N/A   Unknown
5:15 AM 33.8 °F - 32.0 °F 93% 29.87 in 10.0 mi Calm Calm - N/A   Unknown
5:35 AM 33.8 °F 30.8 °F 32.0 °F 93% 29.85 in 10.0 mi NE 3.5 mph - N/A   Unknown
5:55 AM 33.8 °F - 32.0 °F 93% 29.86 in 10.0 mi Calm Calm - N/A   Unknown
6:15 AM 33.8 °F 29.6 °F 32.0 °F 93% 29.87 in 10.0 mi West 4.6 mph - N/A   Unknown
6:35 AM 35.6 °F - 32.0 °F 87% 29.87 in 10.0 mi Calm Calm - N/A   Unknown
6:55 AM 35.6 °F 31.7 °F 33.8 °F 93% 29.87 in 10.0 mi West 4.6 mph - N/A   Unknown
7:15 AM 35.6 °F 30.7 °F 33.8 °F 93% 29.88 in 10.0 mi WNW 5.8 mph - N/A   Unknown
7:35 AM 35.6 °F 32.8 °F 33.8 °F 93% 29.88 in 10.0 mi WNW 3.5 mph - N/A   Unknown
7:55 AM 35.6 °F 31.7 °F 33.8 °F 93% 29.90 in 10.0 mi WNW 4.6 mph - N/A   Unknown
8:15 AM 35.6 °F 32.8 °F 33.8 °F 93% 29.90 in 10.0 mi NW 3.5 mph - N/A   Unknown
8:35 AM 37.4 °F 32.8 °F 33.8 °F 87% 29.90 in 10.0 mi NW 5.8 mph - N/A   Unknown
8:55 AM 37.4 °F 29.8 °F 35.6 °F 93% 29.91 in 10.0 mi NW 11.5 mph - N/A   Unknown
9:15 AM 37.4 °F 30.3 °F 35.6 °F 93% 29.91 in 10.0 mi NW 10.4 mph - N/A   Unknown
9:35 AM 37.4 °F 30.8 °F 35.6 °F 93% 29.92 in 7.0 mi NW 9.2 mph - N/A   Unknown
9:55 AM 37.4 °F 30.3 °F 35.6 °F 93% 29.93 in 5.0 mi NW 10.4 mph - 0.01 in   Unknown
10:15 AM 37.4 °F 30.8 °F 35.6 °F 93% 29.94 in 10.0 mi NW 9.2 mph - N/A   Unknown
10:35 AM 37.4 °F 30.8 °F 35.6 °F 93% 29.94 in 10.0 mi WNW 9.2 mph - N/A   Unknown
10:55 AM 37.4 °F 31.4 °F 35.6 °F 93% 29.95 in 10.0 mi NW 8.1 mph - 0.01 in   Unknown
11:15 AM 37.4 °F 32.1 °F 35.6 °F 93% 29.96 in 10.0 mi NW 6.9 mph - N/A   Unknown
11:35 AM 37.4 °F 30.3 °F 35.6 °F 93% 29.96 in 10.0 mi NW 10.4 mph - N/A   Unknown
11:55 AM 39.2 °F 33.0 °F 35.6 °F 87% 29.97 in 10.0 mi NW 9.2 mph - N/A   Unknown
12:15 PM 39.2 °F 33.0 °F 35.6 °F 87% 29.98 in 10.0 mi NNW 9.2 mph - N/A   Unknown
12:35 PM 39.2 °F 33.6 °F 35.6 °F 87% 29.99 in 10.0 mi North 8.1 mph - N/A   Unknown
12:55 PM 39.2 °F 34.2 °F 35.6 °F 87% 29.99 in 10.0 mi NNW 6.9 mph - N/A   Unknown
1:15 PM 41.0 °F 35.8 °F 35.6 °F 81% 30.00 in 10.0 mi NNW 8.1 mph - N/A   Unknown
1:35 PM 41.0 °F 37.1 °F 37.4 °F 87% 30.00 in 10.0 mi NNW 5.8 mph - N/A   Unknown
1:55 PM 41.0 °F 35.2 °F 35.6 °F 81% 30.00 in 10.0 mi NW 9.2 mph - N/A   Unknown
2:15 PM 41.0 °F 35.2 °F 37.4 °F 87% 30.01 in 10.0 mi NNW 9.2 mph - N/A   Unknown
2:35 PM 41.0 °F 35.2 °F 37.4 °F 87% 30.02 in 10.0 mi NNW 9.2 mph - N/A   Unknown
2:55 PM 41.0 °F 34.7 °F 37.4 °F 87% 30.02 in 10.0 mi NNW 10.4 mph - N/A   Unknown
3:15 PM 41.0 °F 34.3 °F 37.4 °F 87% 30.03 in 10.0 mi NNW 11.5 mph 19.6 mph N/A   Unknown
3:35 PM 42.8 °F 35.8 °F 37.4 °F 81% 30.04 in 10.0 mi NNW 13.8 mph 20.7 mph N/A   Unknown
3:55 PM 42.8 °F 37.0 °F 37.4 °F 81% 30.04 in 10.0 mi NNW 10.4 mph 17.3 mph N/A   Unknown
4:35 PM 42.8 °F 37.5 °F 37.4 °F 81% 30.06 in 10.0 mi NW 9.2 mph - N/A   Unknown
4:55 PM 42.8 °F 35.1 °F 37.4 °F 81% 30.07 in 10.0 mi NNW 16.1 mph 20.7 mph N/A   Unknown
5:15 PM 41.0 °F 31.9 °F 35.6 °F 81% 30.08 in 10.0 mi NNW 19.6 mph 25.3 mph N/A   Unknown
5:35 PM 41.0 °F 32.5 °F 35.6 °F 81% 30.09 in 10.0 mi NNW 17.3 mph 23.0 mph N/A   Unknown
5:55 PM 41.0 °F 33.5 °F 35.6 °F 81% 30.10 in 10.0 mi NW 13.8 mph 19.6 mph N/A   Unknown
6:15 PM 41.0 °F 32.5 °F 33.8 °F 76% 30.11 in 10.0 mi NNW 17.3 mph - N/A   Unknown
6:35 PM 41.0 °F 34.3 °F 33.8 °F 76% 30.11 in 10.0 mi NW 11.5 mph - N/A   Unknown
6:55 PM 41.0 °F 33.1 °F 33.8 °F 76% 30.12 in 10.0 mi NW 15.0 mph - N/A   Unknown
7:15 PM 41.0 °F 33.5 °F 33.8 °F 76% 30.12 in 10.0 mi NW 13.8 mph - N/A   Unknown
7:35 PM 39.2 °F 31.6 °F 33.8 °F 81% 30.13 in 10.0 mi NW 12.7 mph 18.4 mph N/A   Unknown
7:55 PM 39.2 °F 31.6 °F 33.8 °F 81% 30.13 in 10.0 mi NNW 12.7 mph 18.4 mph N/A   Unknown
8:15 PM 39.2 °F 32.0 °F 33.8 °F 81% 30.15 in 10.0 mi NW 11.5 mph - N/A   Unknown
8:35 PM 39.2 °F 31.6 °F 32.0 °F 75% 30.15 in 10.0 mi NW 12.7 mph - N/A   Unknown
8:55 PM 39.2 °F 30.5 °F 32.0 °F 75% 30.15 in 10.0 mi NW 16.1 mph 24.2 mph N/A   Unknown
9:15 PM 37.4 °F 29.3 °F 32.0 °F 81% 30.15 in 10.0 mi NW 12.7 mph - N/A   Unknown
9:35 PM 37.4 °F 28.9 °F 32.0 °F 81% 30.16 in 10.0 mi NW 13.8 mph 17.3 mph N/A   Unknown
9:55 PM 37.4 °F 29.8 °F 32.0 °F 81% 30.16 in 10.0 mi NW 11.5 mph - N/A   Unknown
10:15 PM 37.4 °F 28.9 °F 32.0 °F 81% 30.17 in 10.0 mi NW 13.8 mph - N/A   Unknown
10:35 PM 37.4 °F 28.5 °F 32.0 °F 81% 30.17 in 10.0 mi NW 15.0 mph 18.4 mph N/A   Unknown
11:15 PM 37.4 °F 30.8 °F 32.0 °F 81% 30.18 in 10.0 mi NNW 9.2 mph 17.3 mph N/A   Unknown
11:35 PM 37.4 °F 29.8 °F 32.0 °F 81% 30.18 in 10.0 mi NW 11.5 mph 18.4 mph N/A   Unknown
11:55 PM 37.4 °F 30.8 °F 32.0 °F 81% 30.17 in 10.0 mi NNW 9.2 mph - N/A   Unknown